Regional Weather Roundup
Issued by NWS

Home | Current Version | Previous Version | Graphics & Text | Print | Product List | Glossary On
Versions: 1 2 3 4 5 6 7 8 9 10 11 12 13 14 15 16 17 18 19 20 21 22 23 24 25 26 27 28 29 30 31 32 33 34 35 36 37 38 39 40 41 42 43 44 45 46 47 48 49 50
000
ASUS45 KCYS 030510
RWRWY

WYOMING REGIONAL WEATHER ROUNDUP
NATIONAL WEATHER SERVICE CHEYENNE WY
1000 PM MST MON MAR 02 2015

NOTE:  "FAIR" INDICATES FEW OR NO CLOUDS BELOW 12,000 FEET
WITH NO SIGNIFICANT WEATHER AND/OR OBSTRUCTIONS TO VISIBILITY.

WYZ001-030600-
YELLOWSTONE NATIONAL PARK

CITY           SKY/WX    TMP DP  RH WIND       PRES   REMARKS
LK YELLOWSTONE   N/A     19  14  81 CALM      29.64R
W YELLOWSTONE  NOT AVBL

$$
WYZ002>013-054>058-071-098>099-030600-
NORTHERN WYOMING

CITY           SKY/WX    TMP DP  RH WIND       PRES   REMARKS
JACKSON        CLOUDY    25  23  93 CALM      29.63R
CODY           CLOUDY    21  18  86 N23       29.80R WCI   5
GREYBULL       CLOUDY    29  16  58 NW18G30   29.71R WCI  16
WORLAND        CLOUDY    31  19  61 NW20G26   29.71R WCI  19
SHERIDAN       LGT SNOW  25  22  88 N15       29.84R VSB 3/4 WCI  13
BUFFALO        SNOW      24  21  88 NW26G39   29.75R VSB 1/2 WCI   8
GILLETTE       CLOUDY    27  19  72 N25       29.71R WCI  12
HULETT         CLOUDY    30  21  69 N15G22    29.74R WCI  19
NEWCASTLE      FLURRIES  30  23  74 N12G21    29.67F WCI  21

$$
WYZ014>020-022>026-101>103-030600-
CENTRAL WYOMING

CITY           SKY/WX    TMP DP  RH WIND       PRES   REMARKS
BIG PINEY      LGT SNOW  25  22  88 N9        29.60R FOG     WCI  15
PINEDALE       FLURRIES  25  23  93 CALM      29.60R
DUBOIS         LGT SNOW  21  19  93 SE10      29.60R WCI  10
LANDER         HVY SNOW  24  22  91 W9        29.67R VSB 1/4 WCI  14
RIVERTON       LGT SNOW  23  19  85 W8        29.68R FOG     WCI  14
CASPER         LGT SNOW  27  24  89 NE17G23   29.60F FOG     WCI  14
DOUGLAS        LGT SNOW  32  31  96 N7        29.66R FOG     WCI  26

$$
WYZ021-027>030-104>119-030600-
SOUTHERN WYOMING

CITY           SKY/WX    TMP DP  RH WIND       PRES   REMARKS
EVANSTON       LGT SNOW  27  25  92 W17       29.66R FOG     WCI  14
KEMMERER       FLURRIES  27  27 100 W17       29.61R WCI  14
FORT BRIDGER   LGT SNOW  30  29  96 W21G31    29.65R WCI  17
ROCK SPRINGS   LGT SNOW  29  28  96 W13       29.62R FOG     WCI  19
DIXON          FLURRIES  35  31  87 S20       29.61S WCI  24
RAWLINS        FAIR      30  27  88 NE3       29.54F
SARATOGA       MOCLDY    30  30 100 MISG      29.57F
LARAMIE        FLURRIES  32  30  92 SW14G25   29.60R WCI  22
CHEYENNE       CLOUDY    32  25  75 SW7       29.55F WCI  26
TORRINGTON     LGT SNOW  28  26  92 NE8       29.59F FOG     WCI  20
PINE BLUFFS    FAIR      28  27  93 E5        29.59F WCI  23

$$


USA.gov is the U.S. government's official web portal to all federal, state and local government web resources and services.